Regional Weather Roundup
Issued by NWS

Home | Current Version | Previous Version | Graphics & Text | Print | Product List | Glossary On
Versions: 1 2 3 4 5 6 7 8 9 10 11 12 13 14 15 16 17 18 19 20 21 22 23 24 25 26 27 28 29 30 31 32 33 34 35 36 37 38 39 40 41 42 43 44 45 46 47 48 49 50
000
ASUS43 KOAX 290910
RWRNE

WEATHER ROUNDUP FOR NEBRASKA
NATIONAL WEATHER SERVICE OMAHA NE
400 AM CDT FRI MAY 29 2015

NOTES: SATELLITE DATA IS BEING USED TO AUGMENT CLOUD COVER ABOVE
       12000 FEET.
       "FAIR" INDICATES FEW OR NO CLOUDS BELOW 12,000 FEET WITH NO
       SIGNIFICANT WEATHER AND/OR OBSTRUCTIONS TO VISIBILITY.

  * THESE STATIONS DO NOT REPORT WEATHER SUCH AS RAIN...SNOW OR FOG.

NEZ001>004-019>022-054>056-291000-
NEBRASKA PANHANDLE

CITY           SKY/WX    TMP DP  RH WIND       PRES   REMARKS
SCOTTSBLUFF    PTCLDY    50  48  93 NW6       30.06F
ALLIANCE       PTCLDY    52  49  89 NW8       30.04F
CHADRON        CLOUDY    55  52  89 SW5       30.04R
KIMBALL          N/A    N/A N/A N/A MISG        N/A
SIDNEY         MOCLDY    52  49  89 NW12      30.07R
$$

NEZ057>060-069>072-079>082-291000-
SOUTHWEST NEBRASKA

CITY           SKY/WX    TMP DP  RH WIND       PRES   REMARKS
NORTH PLATTE   CLOUDY    54  53  97 W5        29.98R
IMPERIAL       CLOUDY    56  52  86 NW6       30.00R
LEXINGTON      CLOUDY    55  53  93 S5        29.91F
MCCOOK         MOCLDY    54  52  93 SW14      29.96F
OGALLALA       CLOUDY    56  53  89 W8        30.00F
$$

NEZ005>010-023>029-035>040-094-291000-
NORTH CENTRAL NEBRASKA

CITY           SKY/WX    TMP DP  RH WIND       PRES   REMARKS
VALENTINE      CLOUDY    56  54  93 W8        29.94S
AINSWORTH      CLOUDY    58  55  90 W8        29.93F
BROKEN BOW     CLOUDY    59  57  93 E3        29.91S
O`NEILL        CLOUDY    59  58  96 W8        29.90R
ORD            CLOUDY    59  56  89 SW6       29.88F
THEDFORD       CLOUDY    56  54  92 W9        29.98S
$$

NEZ041-046>049-061>064-073>077-083>087-291000-
SOUTH CENTRAL NEBRASKA

CITY           SKY/WX    TMP DP  RH WIND       PRES   REMARKS
GRAND ISLAND   CLOUDY    61  58  90 W10       29.90S
AURORA         CLOUDY    62  62 100 W5        29.88F
HASTINGS       MOCLDY    61  57  87 W9        29.91R
HEBRON         CLOUDY    61  57  88 SW3       29.90R
HOLDREGE       CLOUDY    58  53  81 W7        29.92F
KEARNEY *      CLOUDY    59  54  82 NW8       29.91F
$$

NEZ011>018-030>034-042>045-291000-
NORTHEAST NEBRASKA

CITY           SKY/WX    TMP DP  RH WIND       PRES   REMARKS
NORFOLK        LGT RAIN  65  60  84 S12       29.86F
ALBION         LGT RAIN  62  58  86 SW3       29.88F
BLAIR          MOCLDY    65  62  89 SE6       29.88F
COLUMBUS *     CLOUDY    63  57  82 NW6       29.86F
FREMONT        CLOUDY    66  64  94 SE5       29.86F
TEKAMAH        CLOUDY    65  63  93 SE8       29.87F
WAYNE          LGT RAIN  65  60  83 SW12      29.85F
$$

NEZ050>053-065>068-078-088>093-291000-
SOUTHEAST NEBRASKA

CITY           SKY/WX    TMP DP  RH WIND       PRES   REMARKS
LINCOLN        CLOUDY    65  63  93 S7        29.88R
OMAHA EPPLEY   CLOUDY    66  63  90 SE10      29.88F
BEATRICE       CLOUDY    62  59  90 CALM      29.89F
FALLS CITY     MOCLDY    65  62  90 S9        29.89F
NEBRASKA CITY  PTCLDY    64  64  97 S12       29.88F
PLATTSMOUTH    PTCLDY    64  61  91 SE9       29.89F
$$

NEZ044-045-051>053-067-291000-
OMAHA AREA

CITY           SKY/WX    TMP DP  RH WIND       PRES   REMARKS
OMAHA EPPLEY   CLOUDY    66  63  90 SE10      29.88F
BLAIR          MOCLDY    65  62  89 SE6       29.88F
FREMONT        CLOUDY    66  64  94 SE5       29.86F
MILLARD        MOCLDY    66  63  91 SE6       29.87F
OFFUTT AFB     MOCLDY    64  63  94 E9        29.88F
PLATTSMOUTH    PTCLDY    64  61  91 SE9       29.89F
WAHOO          PTSUNNY   65  63  94 E3        29.85F
$$


USA.gov is the U.S. government's official web portal to all federal, state and local government web resources and services.